Wind_Speed
13 13 13 13 13 12 12 12 13 13 13 13 13 13 13 13 13 13 13 12 12 11 11 12 12 12 12 13 13 14 15 16 16 17 17 17 18 19
14 13 14 14 13 13 13 13 14 14 14 14 13 13 13 13 13 13 13 13 13 12 12 12 13 13 13 14 14 14 15 16 16 17 17 17 17 18
15 15 14 14 14 14 14 14 14 14 14 14 14 13 14 14 14 14 14 14 13 13 13 13 14 14 14 15 15 16 16 16 17 17 17 18 18 19
15 16 15 15 15 15 15 15 15 15 15 14 14 14 14 14 14 14 15 15 14 14 14 14 15 15 16 16 16 17 17 17 18 18 18 19 19 19
17 17 16 16 15 15 15 16 16 16 16 16 15 15 15 14 15 15 16 15 15 15 16 16 16 17 17 18 18 17 18 18 19 20 20 19 19 19
19 18 18 17 17 16 16 17 17 17 17 17 16 16 16 16 16 16 16 16 16 17 17 17 17 18 19 19 19 19 19 20 21 21 21 20 20 20
19 19 19 19 19 18 18 18 18 17 18 18 17 17 17 18 18 17 17 17 17 18 18 18 19 19 20 20 20 21 21 21 21 22 22 21 21 21
20 20 20 20 20 20 20 20 19 19 19 19 19 19 19 19 19 19 19 19 19 19 20 20 21 21 21 21 22 22 22 22 22 22 23 22 22 22
22 21 20 20 21 21 21 21 21 21 21 21 21 21 21 21 21 20 21 21 21 21 21 22 23 23 23 23 23 23 23 23 23 23 23 24 24 24
23 23 22 21 21 21 21 22 22 23 23 23 23 23 23 23 23 23 23 23 24 24 24 24 24 25 25 25 24 24 24 24 24 24 25 25 26 26
25 24 23 23 23 23 23 23 24 24 25 25 25 25 25 25 25 26 26 26 26 26 27 27 26 27 26 26 26 26 26 26 26 26 27 27 28 28
25 25 25 25 25 25 26 26 26 26 26 26 26 26 27 27 28 28 28 28 28 28 28 28 28 28 28 28 28 28 28 28 28 28 29 29 29 29
26 27 27 27 27 28 28 28 27 27 28 28 28 28 28 29 29 30 30 30 30 30 30 30 29 29 30 30 30 30 30 29 29 29 29 29 29 29
27 28 28 28 29 29 30 30 30 30 30 30 30 30 30 30 31 31 31 32 32 32 32 32 31 31 32 32 32 31 31 31 31 31 31 30 30 30
29 29 29 29 30 30 31 31 31 31 32 32 32 32 32 33 33 33 33 34 34 34 34 34 34 34 34 34 33 33 33 33 33 33 33 32 32 32
31 31 31 31 31 31 32 32 32 32 33 33 34 34 34 35 35 35 35 35 36 36 35 36 36 36 35 35 35 35 34 34 34 34 34 33 33 32
32 32 32 33 33 33 34 34 34 34 34 34 35 35 36 36 36 37 37 36 36 36 36 36 36 35 35 35 35 35 35 34 34 34 34 33 34 34
32 33 33 34 35 35 35 36 36 36 36 36 36 36 36 37 37 38 38 38 37 37 36 36 37 36 36 36 36 35 35 35 34 33 33 33 33 34
33 33 34 34 35 36 36 36 36 37 37 37 37 37 37 37 38 38 38 37 37 37 36 36 36 36 36 36 35 36 36 36 36 35 35 34 33 34
33 34 34 35 35 36 37 37 38 38 39 39 38 38 38 38 38 38 37 37 37 37 36 36 35 35 35 35 36 36 36 36 36 36 35 35 35 35
34 34 35 36 36 37 37 37 38 39 39 39 39 39 39 39 39 39 38 38 37 37 36 36 35 35 35 35 35 35 35 35 36 36 36 36 36 36
35 35 36 36 37 37 38 38 39 39 40 40 40 41 41 40 40 40 40 39 38 38 37 36 36 36 36 35 35 34 35 35 35 35 36 37 37 36
37 36 36 37 37 37 37 38 38 38 39 40 41 41 40 40 40 40 40 39 38 37 38 38 38 37 36 36 35 35 34 34 34 34 34 35 35 35
Wind_Direction
261 263 261 261 259 260 260 258 257 259 259 261 261 261 264 268 270 272 273 271 271 270 271 272 269 267 269 274 277 277 277 277 277 279 281 279 277 274
259 260 260 257 258 258 259 260 257 258 259 261 262 262 267 269 270 271 272 270 271 272 272 270 269 270 270 274 277 279 280 280 279 280 280 282 280 277
258 260 260 258 258 259 260 260 256 256 260 261 263 265 268 268 269 269 271 269 270 270 273 273 273 275 276 277 279 281 282 282 283 281 280 282 282 278
259 259 258 259 259 260 260 259 258 258 258 260 263 264 266 267 267 268 269 271 267 268 272 274 275 276 277 279 280 281 284 285 287 286 285 287 287 285
260 259 259 259 260 260 260 258 258 257 257 260 262 262 264 267 268 270 270 269 269 270 272 274 275 276 276 278 280 281 283 286 287 287 285 285 286 286
259 258 257 258 259 259 259 260 260 259 257 259 260 260 264 267 268 270 271 272 273 273 273 274 276 277 277 277 278 280 283 285 286 285 284 284 284 285
257 257 256 256 258 260 260 260 261 260 258 260 260 261 264 267 267 269 271 274 274 274 274 274 276 278 279 278 278 280 281 283 284 284 282 281 283 285
256 256 255 255 256 259 261 260 259 260 260 261 260 262 265 267 268 269 272 273 273 273 274 275 276 277 279 279 278 279 281 282 283 284 281 280 282 284
255 256 256 256 257 259 260 260 260 260 261 263 263 264 266 267 266 268 270 271 273 275 275 276 277 277 278 277 278 280 281 281 282 283 283 283 283 283
256 255 257 257 258 258 259 260 261 262 262 263 264 264 265 265 267 268 270 272 274 275 276 276 276 277 277 277 277 279 280 280 281 282 282 283 282 282
257 256 256 257 258 259 260 261 262 263 263 263 263 263 264 265 267 269 271 272 274 275 275 275 275 276 276 276 276 277 278 280 281 281 282 282 283 283
258 257 257 257 258 260 261 261 262 262 263 263 264 265 264 265 267 269 271 271 273 275 275 275 275 275 275 274 275 277 278 280 280 281 281 282 282 283
259 259 259 259 260 261 262 263 264 264 264 264 264 264 266 267 269 270 271 272 273 274 275 274 274 274 275 275 275 276 278 279 280 280 280 281 282 283
259 260 261 262 262 262 263 264 264 264 265 265 265 265 267 268 269 270 272 273 273 274 274 274 274 273 274 274 275 275 276 277 279 280 280 281 281 282
260 261 261 262 263 264 265 266 266 267 267 268 269 269 270 270 270 271 272 273 274 273 273 274 273 274 275 275 275 274 274 276 277 278 279 280 281 281
262 262 263 263 265 265 266 266 267 268 269 270 271 271 272 272 273 273 273 274 273 273 273 272 271 272 273 274 274 274 274 274 275 276 278 279 279 280
263 263 264 265 266 266 266 267 267 268 270 271 271 272 273 273 273 274 274 275 274 272 272 272 271 272 272 272 273 273 274 274 275 276 277 278 278 280
265 266 267 267 268 267 267 267 267 268 270 271 271 271 272 273 273 274 274 275 275 274 274 274 273 272 273 274 274 274 273 274 275 276 277 277 278 279
268 268 269 269 269 268 268 267 268 269 270 270 271 272 272 273 273 274 274 274 274 274 273 274 273 273 273 274 274 274 274 274 275 276 277 277 277 278
270 270 271 271 271 270 269 268 269 270 271 270 271 272 272 273 274 275 274 274 274 274 273 273 273 273 274 273 274 274 274 275 276 276 276 276 277 278
273 273 273 273 273 273 272 270 269 270 271 271 271 271 272 272 273 274 274 274 274 274 273 272 272 272 273 273 273 275 275 276 276 276 277 277 277 279
274 275 275 274 274 274 274 273 272 271 271 271 271 271 271 272 272 273 273 273 273 273 272 270 269 271 272 273 273 274 275 276 276 277 277 278 278 279
274 275 275 275 274 274 274 274 274 274 273 272 272 272 271 270 271 272 272 272 272 272 271 269 269 269 270 271 272 273 275 276 276 277 278 279 280 280
Height
5812 5812 5812 5812 5812 5812 5812 5812 5813 5813 5813 5812 5812 5813 5812 5812 5812 5812 5812 5811 5811 5811 5811 5811 5811 5810 5810 5810 5809 5809 5808 5808 5807 5806 5805 5804 5803 5802
5809 5809 5808 5808 5808 5808 5808 5808 5808 5809 5809 5809 5809 5809 5809 5809 5809 5809 5808 5808 5808 5808 5808 5808 5807 5807 5807 5806 5806 5805 5804 5803 5802 5802 5801 5799 5798 5797
5805 5805 5805 5805 5805 5805 5805 5805 5805 5805 5805 5805 5805 5805 5805 5805 5805 5805 5805 5805 5804 5804 5804 5804 5804 5803 5803 5802 5801 5801 5800 5799 5798 5797 5796 5794 5793 5792
5801 5801 5801 5801 5801 5801 5801 5801 5801 5801 5802 5802 5802 5802 5801 5801 5801 5801 5801 5801 5801 5800 5800 5800 5800 5799 5798 5797 5797 5796 5795 5794 5793 5792 5791 5790 5788 5787
5796 5796 5796 5797 5797 5797 5797 5797 5797 5797 5797 5798 5798 5798 5798 5797 5797 5797 5797 5797 5796 5796 5796 5795 5795 5794 5794 5793 5792 5791 5790 5789 5788 5787 5786 5785 5783 5782
5791 5791 5792 5792 5792 5792 5793 5793 5793 5793 5793 5793 5793 5793 5793 5793 5793 5793 5792 5792 5792 5791 5791 5791 5790 5789 5789 5788 5787 5786 5785 5784 5782 5781 5780 5779 5778 5776
5786 5786 5786 5787 5787 5788 5788 5788 5788 5788 5789 5789 5789 5789 5789 5788 5788 5788 5787 5787 5787 5786 5786 5786 5785 5784 5783 5782 5782 5781 5780 5778 5777 5775 5774 5773 5772 5770
5780 5780 5781 5781 5782 5782 5782 5782 5783 5783 5783 5783 5784 5784 5783 5783 5783 5782 5782 5782 5782 5781 5780 5780 5779 5778 5777 5776 5775 5774 5773 5772 5771 5769 5767 5766 5765 5764
5774 5774 5775 5775 5775 5776 5776 5777 5777 5777 5778 5778 5778 5778 5777 5777 5777 5777 5776 5776 5775 5775 5774 5774 5773 5772 5771 5770 5769 5768 5767 5765 5764 5763 5761 5760 5758 5757
5767 5768 5768 5769 5769 5770 5770 5770 5771 5771 5771 5771 5771 5771 5771 5770 5770 5770 5770 5769 5769 5768 5767 5767 5766 5765 5763 5762 5762 5760 5759 5758 5757 5755 5754 5752 5750 5749
5760 5761 5761 5762 5763 5763 5763 5764 5764 5764 5763 5764 5764 5764 5763 5763 5763 5763 5762 5762 5761 5761 5760 5759 5758 5757 5756 5755 5754 5753 5752 5750 5749 5747 5745 5744 5742 5740
5753 5754 5754 5755 5755 5755 5755 5756 5756 5756 5756 5756 5756 5756 5756 5755 5755 5755 5754 5753 5753 5752 5751 5750 5749 5748 5748 5747 5745 5744 5743 5742 5740 5738 5736 5735 5733 5731
5745 5746 5746 5746 5747 5747 5747 5748 5748 5747 5747 5747 5748 5747 5747 5747 5746 5746 5745 5744 5743 5743 5742 5741 5740 5739 5739 5738 5737 5735 5734 5732 5731 5729 5727 5725 5724 5722
5737 5737 5738 5738 5738 5739 5739 5739 5739 5738 5738 5738 5738 5738 5738 5737 5737 5736 5735 5734 5733 5733 5732 5731 5730 5729 5729 5728 5727 5726 5724 5722 5721 5719 5718 5716 5714 5713
5728 5728 5729 5729 5729 5729 5729 5729 5729 5729 5729 5729 5728 5728 5728 5727 5726 5725 5724 5723 5722 5721 5721 5720 5719 5719 5718 5717 5716 5715 5714 5713 5711 5710 5708 5706 5705 5703
5718 5719 5719 5719 5719 5720 5720 5719 5719 5719 5719 5718 5718 5718 5717 5716 5715 5714 5713 5711 5711 5710 5709 5708 5707 5707 5706 5705 5705 5704 5703 5702 5701 5699 5698 5696 5694 5693
5708 5709 5709 5709 5709 5709 5709 5709 5708 5708 5708 5707 5707 5706 5705 5704 5704 5702 5701 5699 5698 5697 5697 5696 5695 5695 5694 5693 5693 5692 5691 5690 5689 5688 5687 5685 5684 5682
5698 5698 5698 5698 5698 5698 5698 5697 5697 5696 5696 5695 5695 5694 5693 5692 5691 5690 5689 5687 5686 5685 5684 5684 5683 5682 5682 5682 5681 5680 5679 5678 5677 5676 5675 5674 5673 5671
5687 5687 5687 5687 5686 5686 5686 5685 5685 5685 5684 5683 5682 5681 5681 5680 5678 5678 5676 5675 5674 5673 5673 5672 5671 5670 5670 5670 5669 5668 5667 5666 5665 5664 5663 5662 5661 5660
5676 5675 5675 5675 5674 5674 5673 5673 5672 5672 5671 5671 5670 5669 5668 5667 5666 5665 5664 5663 5662 5661 5660 5659 5659 5658 5658 5658 5657 5656 5655 5654 5653 5653 5652 5650 5650 5648
5664 5664 5663 5663 5662 5661 5661 5660 5660 5659 5658 5657 5657 5656 5655 5654 5653 5652 5651 5650 5649 5649 5648 5648 5647 5646 5646 5645 5645 5645 5644 5642 5642 5640 5640 5639 5638 5637
5653 5652 5651 5650 5649 5649 5648 5647 5646 5645 5645 5644 5643 5642 5641 5641 5640 5639 5638 5637 5637 5636 5636 5635 5635 5634 5634 5633 5633 5633 5632 5631 5630 5629 5627 5627 5626 5625
5640 5639 5639 5637 5636 5635 5634 5633 5633 5632 5631 5630 5629 5628 5627 5627 5626 5626 5625 5624 5624 5623 5623 5622 5622 5622 5621 5621 5621 5621 5620 5619 5618 5617 5616 5615 5614 5613